Location: Unspecified
(50.7693°N, 0.0000°E)
Time: 22:12:41
(UTC+00:00)

Vanguard 1 - Pass Details

Date: 17 June 2019
Orbit: 653 x 3830 km, 34.3° (Epoch: 17 July)

Event Time Altitude Azimuth Distance (km) Brightness Sun altitude
Exits shadow 01:51:37 - 180° (S) 6,025 13.5 -11.9°
Reaches altitude 10° 01:54:57 10° 171° (S) 5,444 13.4 -11.7°
Maximum altitude 01:59:50 12° 152° (SSE) 4,769 13.2 -11.3°
Drops below altitude 10° 02:04:00 10° 132° (SE) 4,495 13.3 -11.0°
Sets 02:09:54 0° 105° (ESE) 4,786 13.8 -10.6°
